Boulder City, NV

7:59 PM PDT on June 25, 2017 (GMT -0700)
Boulder City

Weather History for KBVU - July, 2013

Change the Weather History Date:

Sunday, July 14, 2013

  Actual Average (KLAS) Record (KLAS)
Temperature  
Mean Temperature 91 °F -  
Max Temperature 102 °F 105 °F 116 °F (1972)
Min Temperature 80 °F 77 °F 63 °F (1952)
Cooling Degree Days 26    
Growing Degree Days 41 (Base 50)    
Moisture  
Dew Point 51 °F    
Average Humidity 27    
Maximum Humidity 42    
Minimum Humidity 16    
Precipitation  
Precipitation 0.00 in - - ()
Sea Level Pressure  
Sea Level Pressure 29.89 in    
Wind  
Wind Speed 4 mph (SSW)    
Max Wind Speed 24 mph    
Max Gust Speed 31 mph    
Visibility 10 miles    
Events Thunderstorm    
Averages and records for this station are not official NWS values.
T = Trace of Precipitation, MM = Missing Value Source: NWS Daily Summary

Daily Weather History Graph

Daily Weather History Graph

Search for Another Location

Airport or City:

Trip Planner

Search our weather history database for the weather conditions in past years. The results will help you decide how hot, cold, wet, or windy it might be!

Date:

Astronomy

Jul. 14, 2013 Rise Set
Actual Time 5:33 AM PDT 7:56 PM PDT
Civil Twilight 5:04 AM PDT 8:25 PM PDT
Nautical Twilight 4:28 AM PDT 9:02 PM PDT
Astronomical Twilight 3:48 AM PDT 9:41 PM PDT
Moon 11:41 AM PDT (7/14) 11:25 PM PDT (7/14)
Length of Visible Light 15h 21m
Length of Day
14h 22m
Waxing Crescent, 36% of the Moon is Illuminated
Jul 14
Waxing Crescent
Jul 15
First Quarter
Jul 22
Full
Jul 29
Last Quarter
Aug 6
New

Hourly Weather History & Observations

Time (PDT) Temp. Heat Index Dew Point Humidity Pressure Visibility Wind Dir Wind Speed Gust Speed Precip Events Conditions
12:15 AM 82.4 °F 82.0 °F 57.2 °F 42% 29.89 in 9.0 mi Calm Calm - N/A   Clear
12:35 AM 82.4 °F 81.7 °F 55.4 °F 39% 29.89 in 10.0 mi WNW 3.5 mph - N/A   Clear
12:55 AM 84.2 °F - 51.8 °F 33% 29.89 in 10.0 mi WNW 5.8 mph - N/A   Clear
1:15 AM 84.2 °F - 50.0 °F 30% 29.89 in 10.0 mi NW 5.8 mph - N/A   Clear
1:35 AM 82.4 °F - 50.0 °F 32% 29.89 in 10.0 mi NW 3.5 mph - N/A   Clear
1:55 AM 82.4 °F 81.4 °F 53.6 °F 37% 29.89 in 10.0 mi Calm Calm - N/A   Clear
2:15 AM 82.4 °F - 50.0 °F 32% 29.89 in 10.0 mi Calm Calm - N/A   Clear
2:35 AM 80.6 °F - 51.8 °F 37% 29.89 in 10.0 mi NNW 4.6 mph - N/A   Clear
2:55 AM 80.6 °F - 50.0 °F 34% 29.89 in 10.0 mi NNW 3.5 mph - N/A   Clear
3:15 AM 80.6 °F - 50.0 °F 34% 29.89 in 10.0 mi Calm Calm - N/A   Clear
3:35 AM 80.6 °F - 50.0 °F 34% 29.89 in 10.0 mi West 3.5 mph - N/A   Clear
3:55 AM 82.4 °F - 48.2 °F 30% 29.90 in 10.0 mi Calm Calm - N/A Thunderstorm Clear
4:15 AM 80.6 °F - 51.8 °F 37% 29.90 in 10.0 mi North 4.6 mph - N/A   Partly Cloudy
4:35 AM 80.6 °F - 51.8 °F 37% 29.91 in 10.0 mi Calm Calm - N/A   Partly Cloudy
4:55 AM 80.6 °F 80.3 °F 53.6 °F 39% 29.91 in 10.0 mi Calm Calm - N/A   Clear
5:15 AM 80.6 °F 80.3 °F 53.6 °F 39% 29.91 in 10.0 mi North 3.5 mph - N/A   Clear
5:35 AM 80.6 °F - 50.0 °F 34% 29.92 in 10.0 mi Calm Calm - N/A   Clear
5:55 AM 80.6 °F - 51.8 °F 37% 29.92 in 10.0 mi Calm Calm - N/A Thunderstorm Clear
6:15 AM 82.4 °F 81.4 °F 53.6 °F 37% 29.93 in 10.0 mi Calm Calm - N/A   Clear
6:35 AM 82.4 °F - 50.0 °F 32% 29.93 in 10.0 mi Calm Calm - N/A   Clear
6:55 AM 82.4 °F - 51.8 °F 35% 29.93 in 10.0 mi Calm Calm - N/A   Clear
7:15 AM 84.2 °F 82.8 °F 53.6 °F 35% 29.94 in 10.0 mi Calm Calm - N/A   Clear
7:35 AM 84.2 °F - 50.0 °F 30% 29.94 in 10.0 mi Calm Calm - N/A   Clear
7:55 AM 86.0 °F - 50.0 °F 29% 29.95 in 10.0 mi Calm Calm - N/A   Partly Cloudy
8:15 AM 86.0 °F - 50.0 °F 29% 29.96 in 10.0 mi Calm Calm - N/A   Scattered Clouds
8:35 AM 86.0 °F - 50.0 °F 29% 29.96 in 10.0 mi Calm Calm - N/A   Mostly Cloudy
8:55 AM 89.6 °F - 50.0 °F 26% 29.96 in 10.0 mi North 3.5 mph - N/A   Partly Cloudy
9:15 AM 91.4 °F - 48.2 °F 23% 29.96 in 10.0 mi ESE 4.6 mph - N/A Thunderstorm Clear
9:35 AM 93.2 °F - 48.2 °F 21% 29.96 in 10.0 mi East 4.6 mph - N/A Thunderstorm Clear
9:55 AM 95.0 °F - 48.2 °F 20% 29.95 in 10.0 mi ESE 11.5 mph - N/A   Clear
10:15 AM 95.0 °F - 48.2 °F 20% 29.96 in 10.0 mi ESE 11.5 mph - N/A Thunderstorm Clear
10:35 AM 95.0 °F - 50.0 °F 22% 29.96 in 10.0 mi ESE 8.1 mph - N/A Thunderstorm Clear
10:55 AM 96.8 °F - 48.2 °F 19% 29.95 in 10.0 mi East 12.7 mph - N/A   Clear
11:15 AM 98.6 °F - 48.2 °F 18% 29.95 in 10.0 mi ESE 6.9 mph - N/A   Clear
11:35 AM 98.6 °F - 48.2 °F 18% 29.95 in 10.0 mi East 10.4 mph - N/A   Clear
11:55 AM 100.4 °F - 50.0 °F 18% 29.94 in 10.0 mi ENE 10.4 mph 16.1 mph N/A   Clear
12:15 PM 98.6 °F - 48.2 °F 18% 29.94 in 10.0 mi East 5.8 mph - N/A   Clear
12:35 PM 98.6 °F - 48.2 °F 18% 29.93 in 10.0 mi East 4.6 mph - N/A   Partly Cloudy
12:55 PM 98.6 °F - 48.2 °F 18% 29.93 in 10.0 mi Calm Calm - N/A   Scattered Clouds
1:15 PM 98.6 °F 96.4 °F 53.6 °F 22% 29.92 in 10.0 mi NW 12.7 mph 18.4 mph N/A   Scattered Clouds
1:35 PM 100.4 °F - 50.0 °F 18% 29.91 in 10.0 mi West 9.2 mph - N/A   Partly Cloudy
1:55 PM 100.4 °F - 48.2 °F 17% 29.90 in 10.0 mi West 4.6 mph - N/A   Scattered Clouds
2:15 PM 102.2 °F - 48.2 °F 16% 29.90 in 10.0 mi WSW 3.5 mph - N/A   Partly Cloudy
2:35 PM 102.2 °F - 48.2 °F 16% 29.89 in 10.0 mi WNW 11.5 mph - N/A   Clear
2:55 PM 102.2 °F - 48.2 °F 16% 29.88 in 10.0 mi West 6.9 mph 16.1 mph N/A   Clear
3:15 PM 102.2 °F - 48.2 °F 16% 29.87 in 10.0 mi North 5.8 mph - N/A   Clear
3:35 PM 100.4 °F - 48.2 °F 17% 29.86 in 10.0 mi West 5.8 mph - N/A   Clear
3:55 PM 100.4 °F - 48.2 °F 17% 29.86 in 10.0 mi WNW 6.9 mph - N/A   Partly Cloudy
4:15 PM 100.4 °F - 48.2 °F 17% 29.85 in 10.0 mi SW 8.1 mph - N/A   Clear
4:35 PM 100.4 °F - 48.2 °F 17% 29.84 in 10.0 mi WSW 8.1 mph - N/A   Clear
4:55 PM 100.4 °F - 48.2 °F 17% 29.84 in 10.0 mi NNW 3.5 mph - N/A   Clear
5:15 PM 100.4 °F - 48.2 °F 17% 29.83 in 10.0 mi SSW 4.6 mph - N/A   Clear
5:35 PM 100.4 °F - 48.2 °F 17% 29.82 in 10.0 mi Calm Calm - N/A   Clear
5:55 PM 100.4 °F - 51.8 °F 20% 29.83 in 10.0 mi ESE 24.2 mph 31.1 mph N/A   Scattered Clouds
6:15 PM 95.0 °F 93.0 °F 55.4 °F 26% 29.83 in 10.0 mi ESE 21.9 mph 27.6 mph N/A   Partly Cloudy
6:35 PM 95.0 °F 92.7 °F 53.6 °F 25% 29.83 in 10.0 mi ESE 18.4 mph - N/A   Clear
6:55 PM 95.0 °F 92.7 °F 53.6 °F 25% 29.83 in 10.0 mi ESE 15.0 mph - N/A   Clear
7:15 PM 95.0 °F 92.7 °F 53.6 °F 25% 29.83 in 10.0 mi ESE 15.0 mph - N/A   Clear
7:35 PM 95.0 °F 92.7 °F 53.6 °F 25% 29.82 in 10.0 mi ESE 9.2 mph - N/A   Clear
7:55 PM 95.0 °F - 51.8 °F 23% 29.83 in 10.0 mi ESE 8.1 mph - N/A   Clear
8:15 PM 95.0 °F 92.7 °F 53.6 °F 25% 29.83 in 10.0 mi South 5.8 mph - N/A   Clear
8:35 PM 93.2 °F 91.3 °F 55.4 °F 28% 29.84 in 10.0 mi Calm Calm - N/A Thunderstorm Clear
8:55 PM 91.4 °F 89.1 °F 53.6 °F 28% 29.84 in 10.0 mi South 3.5 mph - N/A   Clear
9:15 PM 93.2 °F 90.8 °F 53.6 °F 26% 29.85 in 10.0 mi SSW 3.5 mph - N/A   Clear
9:35 PM 93.2 °F 90.8 °F 53.6 °F 26% 29.85 in 10.0 mi SSE 5.8 mph - N/A Thunderstorm Clear
9:55 PM 91.4 °F 89.1 °F 53.6 °F 28% 29.86 in 10.0 mi South 4.6 mph - N/A   Clear
10:15 PM 91.4 °F 89.1 °F 53.6 °F 28% 29.86 in 10.0 mi SSW 4.6 mph - N/A   Clear
10:35 PM 89.6 °F 87.3 °F 53.6 °F 29% 29.86 in 10.0 mi SSW 3.5 mph - N/A   Clear
10:55 PM 89.6 °F 87.7 °F 55.4 °F 31% 29.86 in 10.0 mi SW 3.5 mph - N/A   Clear
11:15 PM 87.8 °F 86.1 °F 55.4 °F 33% 29.86 in 10.0 mi Calm Calm - N/A   Clear
11:35 PM 87.8 °F 86.1 °F 55.4 °F 33% 29.85 in 10.0 mi SW 3.5 mph - N/A   Clear
11:55 PM 84.2 °F 83.5 °F 57.2 °F 40% 29.85 in 10.0 mi Calm Calm - N/A   Clear